• In Uzbekistan
  • List of Countries
  • For 7 days
  • Water Temperature
  • Satellite Maps
  • Weather Map
  • Weather Widgets
  • user-avatar
    Login

    Hourly Weather Innsbruck

    Today, 21 January, Monday

    Time Temperature Precipitation Wind Pressure Humidity
    00:00 -13°C° 0 mm 1 mps 588 mmHg 85%
    01:00 -13°C° 0 mm 1 mps 588 mmHg 85%
    02:00 -13°C° 0 mm 1 mps 588 mmHg 85%
    03:00 -13°C° 0 mm 1 mps 588 mmHg 86%
    04:00 -13°C° 0 mm 1 mps 588 mmHg 86%
    05:00 -13°C° 0 mm 1 mps 588 mmHg 86%
    06:00 -13°C° 0 mm 1 mps 588 mmHg 87%
    07:00 -12°C° 0 mm 1 mps 589 mmHg 87%
    08:00 -11°C° 0 mm 0 mps 589 mmHg 88%
    09:00 -10°C° 0 mm 0 mps 590 mmHg 88%
    10:00 -8°C° 0 mm 0 mps 591 mmHg 88%
    11:00 -8°C° 0 mm 1 mps 591 mmHg 88%
    12:00 -7°C° 0 mm 1 mps 591 mmHg 87%
    13:00 -7°C° 0 mm 1 mps 591 mmHg 89%
    14:00 -7°C° 0.1 mm 1 mps 591 mmHg 90%
    15:00 -7°C° 0.1 mm 1 mps 590 mmHg 91%
    16:00 -8°C° 0.1 mm 2 mps 590 mmHg 93%
    17:00 -9°C° 0 mm 1 mps 590 mmHg 94%
    18:00 -10°C° 0 mm 1 mps 589 mmHg 95%
    19:00 -12°C° 0 mm 1 mps 588 mmHg 96%
    20:00 -12°C° 0 mm 1 mps 588 mmHg 94%
    21:00 -13°C° 0 mm 1 mps 588 mmHg 92%
    22:00 -14°C° 0 mm 1 mps 587 mmHg 90%
    23:00 -15°C° 0 mm 1 mps 587 mmHg 89%

    Tomorrow, 22 January, Tuesday

    Time Temperature Precipitation Wind Pressure Humidity
    00:00 -15°C° 0 mm 1 mps 586 mmHg 88%
    01:00 -16°C° 0 mm 1 mps 586 mmHg 87%
    02:00 -16°C° 0 mm 1 mps 586 mmHg 85%
    03:00 -16°C° 0 mm 1 mps 585 mmHg 84%
    04:00 -16°C° 0 mm 1 mps 585 mmHg 83%
    05:00 -16°C° 0 mm 1 mps 584 mmHg 81%
    06:00 -16°C° 0 mm 1 mps 584 mmHg 79%
    07:00 -16°C° 0 mm 1 mps 584 mmHg 77%
    08:00 -14°C° 0 mm 1 mps 584 mmHg 76%
    09:00 -12°C° 0 mm 1 mps 585 mmHg 76%
    10:00 -11°C° 0 mm 1 mps 586 mmHg 75%
    11:00 -9°C° 0 mm 1 mps 585 mmHg 72%
    12:00 -8°C° 0 mm 0 mps 585 mmHg 68%
    13:00 -7°C° 0 mm 0 mps 585 mmHg 64%
    14:00 -7°C° 0 mm 0 mps 584 mmHg 72%
    15:00 -8°C° 0 mm 0 mps 583 mmHg 79%
    16:00 -9°C° 0 mm 0 mps 582 mmHg 87%
    17:00 -10°C° 0 mm 1 mps 582 mmHg 85%
    18:00 -12°C° 0 mm 1 mps 581 mmHg 82%
    19:00 -15°C° 0 mm 2 mps 580 mmHg 80%
    20:00 -15°C° 0 mm 2 mps 580 mmHg 77%
    21:00 -14°C° 0 mm 2 mps 580 mmHg 75%
    22:00 -14°C° 0 mm 2 mps 580 mmHg 72%
    23:00 -12°C° 0 mm 1 mps 580 mmHg 71%

    Day after tomorrow, 23 January, Wednesday

    Time Temperature Precipitation Wind Pressure Humidity
    00:00 -12°C° 0 mm 1 mps 579 mmHg 70%
    01:00 -12°C° 0 mm 1 mps 579 mmHg 70%
    02:00 -12°C° 0 mm 1 mps 578 mmHg 71%
    03:00 -13°C° 0 mm 1 mps 578 mmHg 73%
    04:00 -13°C° 0 mm 1 mps 577 mmHg 75%
    05:00 -13°C° 0.1 mm 1 mps 577 mmHg 78%
    06:00 -13°C° 0.1 mm 1 mps 577 mmHg 80%
    07:00 -13°C° 0.1 mm 1 mps 577 mmHg 82%
    08:00 -12°C° 0.1 mm 0 mps 577 mmHg 83%
    09:00 -11°C° 0.1 mm 0 mps 577 mmHg 84%
    10:00 -10°C° 0.1 mm 0 mps 578 mmHg 84%
    11:00 -9°C° 0.1 mm 0 mps 578 mmHg 83%
    12:00 -9°C° 0.1 mm 1 mps 578 mmHg 82%
    13:00 -8°C° 0.1 mm 1 mps 578 mmHg 81%
    14:00 -8°C° 0.1 mm 1 mps 578 mmHg 85%
    15:00 -9°C° 0.1 mm 1 mps 578 mmHg 88%
    16:00 -9°C° 0.1 mm 1 mps 578 mmHg 91%
    17:00 -10°C° 0.1 mm 1 mps 577 mmHg 93%
    18:00 -12°C° 0.1 mm 1 mps 577 mmHg 94%
    19:00 -13°C° 0.1 mm 1 mps 577 mmHg 95%
    20:00 -14°C° 0 mm 1 mps 577 mmHg 94%
    21:00 -15°C° 0 mm 1 mps 577 mmHg 93%
    22:00 -15°C° 0 mm 1 mps 577 mmHg 91%
    23:00 -16°C° 0 mm 1 mps 577 mmHg 90%

    24 January, Thursday

    Time Temperature Precipitation Wind Pressure Humidity
    00:00 -16°C° 0 mm 1 mps 578 mmHg 89%
    01:00 -16°C° 0 mm 1 mps 578 mmHg 87%
    02:00 -16°C° 0 mm 1 mps 578 mmHg 87%
    03:00 -16°C° 0 mm 1 mps 578 mmHg 87%
    04:00 -16°C° 0 mm 1 mps 579 mmHg 86%
    05:00 -16°C° 0 mm 1 mps 579 mmHg 87%
    06:00 -17°C° 0 mm 1 mps 579 mmHg 87%
    07:00 -17°C° 0 mm 1 mps 580 mmHg 88%
    08:00 -15°C° 0 mm 1 mps 581 mmHg 88%
    09:00 -14°C° 0 mm 1 mps 582 mmHg 88%
    10:00 -12°C° 0 mm 1 mps 583 mmHg 88%
    11:00 -13°C° 0 mm 2 mps 584 mmHg 89%
    12:00 -12°C° 0 mm 2 mps 584 mmHg 89%
    13:00 -12°C° 0 mm 2 mps 585 mmHg 89%
    14:00 -12°C° 0.1 mm 2 mps 585 mmHg 90%
    15:00 -12°C° 0.1 mm 2 mps 585 mmHg 91%
    16:00 -13°C° 0.1 mm 2 mps 585 mmHg 92%
    17:00 -14°C° 0 mm 2 mps 585 mmHg 94%
    18:00 -16°C° 0 mm 2 mps 584 mmHg 95%
    19:00 -15°C° 0 mm 1 mps 584 mmHg 96%
    20:00 -15°C° 0 mm 1 mps 585 mmHg 95%
    21:00 -16°C° 0 mm 1 mps 585 mmHg 94%
    22:00 -16°C° 0 mm 1 mps 585 mmHg 93%
    23:00 -17°C° 0 mm 1 mps 585 mmHg 92%

    25 January, Friday

    Time Temperature Precipitation Wind Pressure Humidity
    00:00 -17°C° 0 mm 1 mps 585 mmHg 92%
    01:00 -18°C° 0 mm 1 mps 585 mmHg 91%
    02:00 -20°C° 0 mm 2 mps 585 mmHg 91%
    03:00 -20°C° 0 mm 2 mps 585 mmHg 90%
    04:00 -20°C° 0 mm 2 mps 585 mmHg 90%
    05:00 -20°C° 0 mm 2 mps 585 mmHg 89%
    06:00 -20°C° 0 mm 2 mps 585 mmHg 89%
    07:00 -20°C° 0 mm 2 mps 585 mmHg 88%
    08:00 -18°C° 0 mm 2 mps 586 mmHg 88%
    09:00 -16°C° 0 mm 2 mps 587 mmHg 87%
    10:00 -15°C° 0 mm 2 mps 588 mmHg 87%
    11:00 -13°C° 0 mm 2 mps 589 mmHg 82%
    12:00 -12°C° 0 mm 2 mps 589 mmHg 77%
    13:00 -9°C° 0 mm 2 mps 589 mmHg 72%
    14:00 -10°C° 0 mm 2 mps 589 mmHg 76%
    15:00 -10°C° 0 mm 2 mps 589 mmHg 80%
    16:00 -10°C° 0 mm 2 mps 588 mmHg 84%
    17:00 -12°C° 0 mm 2 mps 588 mmHg 82%
    18:00 -13°C° 0 mm 2 mps 588 mmHg 79%
    19:00 -14°C° 0 mm 2 mps 588 mmHg 76%
    20:00 -14°C° 0 mm 2 mps 589 mmHg 79%
    21:00 -13°C° 0 mm 2 mps 589 mmHg 81%
    22:00 -12°C° 0 mm 2 mps 590 mmHg 83%
    23:00 -10°C° 0.1 mm 2 mps 590 mmHg 85%

    26 January, Saturday

    Time Temperature Precipitation Wind Pressure Humidity
    00:00 -10°C° 0.1 mm 2 mps 590 mmHg 87%
    01:00 -9°C° 0.1 mm 2 mps 590 mmHg 89%
    02:00 -9°C° 0.1 mm 2 mps 590 mmHg 90%
    03:00 -8°C° 0.1 mm 2 mps 590 mmHg 91%
    04:00 -8°C° 0.1 mm 2 mps 590 mmHg 92%
    05:00 -8°C° 0 mm 2 mps 589 mmHg 91%
    06:00 -9°C° 0 mm 2 mps 589 mmHg 91%
    07:00 -9°C° 0 mm 2 mps 588 mmHg 90%
    08:00 -7°C° 0 mm 1 mps 589 mmHg 90%
    09:00 -6°C° 0 mm 1 mps 589 mmHg 90%
    10:00 -4°C° 0 mm 1 mps 590 mmHg 90%
    11:00 -3°C° 0 mm 1 mps 590 mmHg 91%
    12:00 -3°C° 0 mm 1 mps 589 mmHg 93%
    13:00 -3°C° 0 mm 0 mps 589 mmHg 94%
    14:00 -3°C° 0 mm 0 mps 589 mmHg 94%
    15:00 -3°C° 0 mm 0 mps 588 mmHg 94%
    16:00 -3°C° 0 mm 0 mps 588 mmHg 93%
    17:00 -4°C° 0 mm 1 mps 587 mmHg 91%
    18:00 -6°C° 0 mm 1 mps 586 mmHg 88%
    19:00 -8°C° 0 mm 2 mps 586 mmHg 86%
    20:00 -9°C° 0 mm 2 mps 585 mmHg 85%
    21:00 -9°C° 0 mm 2 mps 585 mmHg 84%
    22:00 -9°C° 0 mm 2 mps 584 mmHg 82%
    23:00 -9°C° 0 mm 2 mps 584 mmHg 83%
    Show more